This is the latest recevied weather packets stored in our database for station/object OK1HOL-13. If no packets are shown the sender has not sent any weather packets the latest 10 day(s).
| Time | Temp. | Humidity | Pressure | Rain* | Wind** | Luminosity | Snow |
|---|---|---|---|---|---|---|---|
| 1777460480 | 18.33° C | 20% | 1025.6 hPa | - | - | 431 W/m² | - |
| 1777459880 | 17.22° C | 21% | 1025.7 hPa | - | - | 431 W/m² | - |
| 1777458680 | 15.56° C | 23% | 1025.7 hPa | - | - | 431 W/m² | - |
| 1777458080 | 16.67° C | 22% | 1025.7 hPa | - | - | 431 W/m² | - |
| 1777457480 | 17.22° C | 22% | 1026 hPa | - | - | 431 W/m² | - |
| 1777456880 | 15° C | 23% | 1026 hPa | - | - | 431 W/m² | - |
| 1777455680 | 16.11° C | 23% | 1026 hPa | - | - | 431 W/m² | - |
| 1777455080 | 15.56° C | 24% | 1026.1 hPa | - | - | 431 W/m² | - |
| 1777454480 | 15° C | 24% | 1026.2 hPa | - | - | 431 W/m² | - |
| 1777453880 | 15° C | 23% | 1026.3 hPa | - | - | 431 W/m² | - |
| 1777453280 | 13.89° C | 24% | 1026.4 hPa | - | - | 431 W/m² | - |
| 1777452680 | 14.44° C | 24% | 1026.5 hPa | - | - | 431 W/m² | - |
| 1777452084 | 14.44° C | 24% | 1026.4 hPa | - | - | 431 W/m² | - |
| 1777451480 | 13.89° C | 25% | 1026.4 hPa | - | - | 431 W/m² | - |
| 1777450880 | 14.44° C | 24% | 1026.3 hPa | - | - | 431 W/m² | - |
| 1777450280 | 15° C | 23% | 1026.3 hPa | - | - | 400 W/m² | - |
| 1777449680 | 13.33° C | 24% | 1026.3 hPa | - | - | 384 W/m² | - |
| 1777449080 | 14.44° C | 23% | 1026.3 hPa | - | - | 371 W/m² | - |
| 1777448480 | 13.33° C | 25% | 1026.2 hPa | - | - | 348 W/m² | - |
| 1777447880 | 12.22° C | 27% | 1026.3 hPa | - | - | 305 W/m² | - |
| 1777447280 | 12.22° C | 27% | 1026.2 hPa | - | - | 294 W/m² | - |
| 1777446681 | 12.22° C | 27% | 1026.2 hPa | - | - | 277 W/m² | - |
| 1777446080 | 12.22° C | 27% | 1026.2 hPa | - | - | 251 W/m² | - |
| 1777445480 | 11.11° C | 29% | 1026.2 hPa | - | - | 198 W/m² | - |
| 1777444880 | 11.67° C | 30% | 1026.3 hPa | - | - | 169 W/m² | - |
* Rain since midnight (hover to see other rain measurements)
** Current wind speed in m/s (hover to see current wind gust speed)